Вернуться в каталог

SL-12 DEB

LostHEO
NORAD 45496·DEBRIS·🇷🇺 Russia

Запущен Sep 2, 2010 с Baikonur Cosmodrome

Loading…

Ближайшие Пролёты (ближайшие 24 часа)

TLE

УстаревшееSource: Space-Track

Эпоха: Nov 7, 2021, 02:30 UTC

1 45496U 10041AS  21311.10446622  .00034990  00000-0  22182-1 0  9998
2 45496  65.1695 354.9038 5643957   2.2793 359.5786  4.49631632 54051

Отслеживайте SL-12 DEB в реальном времени с AllMySat

Download on the App Store